Auburn, AL

8:44 AM CDT on July 20, 2017 (GMT -0500)
Auburn-opelika-pitts

Weather History for KAUO - March, 2014

Change the Weather History Date:

Monday, March 3, 2014

  Actual Average Record
Temperature  
Mean Temperature 46 °F -  
Max Temperature 57 °F - 83 °F (1976)
Min Temperature 34 °F - 12 °F (1980)
Degree Days  
Heating Degree Days 19    
Month to date heating degree days 35  
Since 1 July heating degree days 2255  
Cooling Degree Days 0    
Month to date cooling degree days 0  
Year to date cooling degree days 0  
Moisture  
Dew Point 39 °F    
Average Humidity 78    
Maximum Humidity 94    
Minimum Humidity 51    
Precipitation  
Precipitation 0.12 in - 5.32 in (2001)
Month to date precipitation 0.12  
Year to date precipitation 6.51  
Sea Level Pressure  
Sea Level Pressure 30.01 in    
Wind  
Wind Speed 12 mph (WNW)    
Max Wind Speed 17 mph    
Max Gust Speed 27 mph    
Visibility 9 miles    
Events      
T = Trace of Precipitation, MM = Missing Value Source: NWS Daily Summary

Daily Weather History Graph

Daily Weather History Graph

Search for Another Location

Airport or City:

Trip Planner

Search our weather history database for the weather conditions in past years. The results will help you decide how hot, cold, wet, or windy it might be!

Date:

Astronomy

Mar. 03, 2014 Rise Set
Actual Time 6:07 AM CST 5:40 PM CST
Civil Twilight 5:42 AM CST 6:05 PM CST
Nautical Twilight 5:13 AM CST 6:33 PM CST
Astronomical Twilight 4:45 AM CST 7:02 PM CST
Moon 7:25 AM CST (3/3) 8:30 PM CST (3/3)
Length of Visible Light 12h 22m
Length of Day
11h 33m
Waxing Crescent, 8% of the Moon is Illuminated
Mar 3
Waxing Crescent
Mar 8
First Quarter
Mar 16
Full
Mar 23
Last Quarter
Mar 30
New

Hourly Weather History & Observations

Time (CST) Temp. Windchill Dew Point Humidity Pressure Visibility Wind Dir Wind Speed Gust Speed Precip Events Conditions
12:15 AM 55.4 °F - 37.4 °F 51% 29.98 in 10.0 mi SSW 9.2 mph - N/A   Partly Cloudy
12:35 AM 55.4 °F - 39.2 °F 54% 29.98 in 10.0 mi SSW 9.2 mph - N/A   Mostly Cloudy
12:55 AM 55.4 °F - 39.2 °F 54% 29.98 in 10.0 mi SSW 9.2 mph - N/A   Overcast
1:15 AM 55.4 °F - 41.0 °F 58% 29.98 in 10.0 mi SW 10.4 mph - N/A   Overcast
1:35 AM 55.4 °F - 41.0 °F 58% 29.96 in 10.0 mi SSW 9.2 mph - N/A   Overcast
1:55 AM 55.4 °F - 41.0 °F 58% 29.95 in 10.0 mi SSW 10.4 mph - N/A   Scattered Clouds
2:15 AM 53.6 °F - 42.8 °F 67% 29.93 in 10.0 mi SSW 10.4 mph - N/A   Mostly Cloudy
2:35 AM 53.6 °F - 42.8 °F 67% 29.93 in 10.0 mi SSW 9.2 mph - N/A   Overcast
2:55 AM 53.6 °F - 44.6 °F 72% 29.91 in 10.0 mi South 10.4 mph - N/A   Overcast
3:15 AM 53.6 °F - 44.6 °F 72% 29.89 in 10.0 mi South 12.7 mph 17.3 mph N/A   Mostly Cloudy
3:35 AM 53.6 °F - 46.4 °F 77% 29.89 in 10.0 mi SSW 11.5 mph - N/A   Partly Cloudy
3:55 AM 51.8 °F - 46.4 °F 82% 29.89 in 10.0 mi South 11.5 mph - N/A   Partly Cloudy
4:15 AM 51.8 °F - 48.2 °F 88% 29.88 in 10.0 mi South 10.4 mph - N/A   Mostly Cloudy
4:35 AM 53.6 °F - 48.2 °F 82% 29.88 in 10.0 mi South 11.5 mph - N/A   Overcast
4:55 AM 53.6 °F - 48.2 °F 82% 29.88 in 10.0 mi SSW 11.5 mph - N/A   Overcast
5:15 AM 53.6 °F - 50.0 °F 88% 29.90 in 10.0 mi SW 6.9 mph - N/A   Overcast
5:35 AM 53.6 °F - 50.0 °F 88% 29.93 in 8.0 mi West 9.2 mph 18.4 mph 0.01 in   Overcast
5:55 AM 53.6 °F - 51.8 °F 94% 29.93 in 5.0 mi WSW 5.8 mph - 0.09 in   Overcast
6:15 AM 53.6 °F - 51.8 °F 94% 29.92 in 5.0 mi SSW 8.1 mph - 0.02 in   Overcast
6:35 AM 53.6 °F - 51.8 °F 94% 29.91 in 3.0 mi South 9.2 mph - 0.02 in   Mostly Cloudy
6:55 AM 53.6 °F - 51.8 °F 94% 29.89 in 2.5 mi South 10.4 mph - 0.02 in   Overcast
7:15 AM 55.4 °F - 51.8 °F 88% 29.90 in 4.0 mi South 15.0 mph - N/A   Overcast
7:35 AM 55.4 °F - 51.8 °F 88% 29.89 in 4.0 mi South 13.8 mph - N/A   Overcast
7:55 AM 55.4 °F - 53.6 °F 94% 29.90 in 7.0 mi SSW 16.1 mph 19.6 mph N/A   Overcast
8:15 AM 57.2 °F - 53.6 °F 88% 29.91 in 9.0 mi SSW 13.8 mph 20.7 mph N/A   Overcast
8:35 AM 57.2 °F - 53.6 °F 88% 29.92 in 10.0 mi SW 12.7 mph 24.2 mph N/A   Overcast
8:55 AM 57.2 °F - 53.6 °F 88% 29.92 in 8.0 mi SW 16.1 mph 20.7 mph N/A   Overcast
9:15 AM 57.2 °F - 55.4 °F 94% 29.92 in 2.5 mi SW 15.0 mph 19.6 mph N/A   Overcast
9:35 AM 57.2 °F - 55.4 °F 94% 29.93 in 2.5 mi SW 12.7 mph 21.9 mph N/A   Overcast
9:55 AM 57.2 °F - 55.4 °F 94% 29.93 in 8.0 mi West 11.5 mph 16.1 mph 0.01 in   Overcast
10:15 AM 55.4 °F - 51.8 °F 88% 29.95 in 5.0 mi West 9.2 mph 23.0 mph N/A   Overcast
10:35 AM 55.4 °F - 51.8 °F 88% 29.96 in 5.0 mi WNW 16.1 mph 23.0 mph N/A   Overcast
10:55 AM 51.8 °F - 48.2 °F 88% 29.98 in 5.0 mi WNW 17.3 mph 26.5 mph N/A   Overcast
11:15 AM 48.2 °F - 42.8 °F 82% 29.99 in 10.0 mi WNW 16.1 mph 20.7 mph N/A   Overcast
11:35 AM 48.2 °F - 42.8 °F 82% 30.00 in 10.0 mi WNW 15.0 mph 18.4 mph N/A   Overcast
11:55 AM 46.4 °F 41.1 °F 41.0 °F 81% 30.00 in 10.0 mi WNW 11.5 mph 19.6 mph N/A   Overcast
12:15 PM 46.4 °F 39.8 °F 39.2 °F 76% 30.00 in 10.0 mi WNW 16.1 mph 19.6 mph N/A   Overcast
12:35 PM 44.6 °F 38.4 °F 39.2 °F 81% 30.00 in 10.0 mi WNW 12.7 mph - N/A   Overcast
12:55 PM 44.6 °F 37.2 °F 39.2 °F 81% 30.01 in 10.0 mi WNW 17.3 mph 20.7 mph N/A   Overcast
1:15 PM 44.6 °F 37.4 °F 37.4 °F 76% 30.01 in 10.0 mi WNW 16.1 mph 23.0 mph N/A   Overcast
1:35 PM 44.6 °F 37.8 °F 35.6 °F 71% 30.02 in 10.0 mi NNW 15.0 mph 21.9 mph N/A   Overcast
1:55 PM 42.8 °F 35.8 °F 35.6 °F 76% 30.02 in 10.0 mi WNW 13.8 mph 20.7 mph N/A   Overcast
2:15 PM 42.8 °F 34.5 °F 35.6 °F 76% 30.02 in 10.0 mi WNW 18.4 mph 21.9 mph N/A   Overcast
2:35 PM 42.8 °F 35.8 °F 33.8 °F 70% 30.03 in 10.0 mi NW 13.8 mph 19.6 mph N/A   Overcast
2:55 PM 42.8 °F 37.0 °F 33.8 °F 70% 30.03 in 10.0 mi NW 10.4 mph 19.6 mph N/A   Overcast
3:15 PM 41.0 °F 32.8 °F 33.8 °F 76% 30.04 in 10.0 mi NW 16.1 mph - N/A   Overcast
3:35 PM 39.2 °F 31.2 °F 32.0 °F 75% 30.05 in 10.0 mi NW 13.8 mph - N/A   Overcast
3:55 PM 39.2 °F 32.5 °F 32.0 °F 75% 30.06 in 10.0 mi NW 10.4 mph - N/A   Overcast
4:15 PM 39.2 °F 31.2 °F 32.0 °F 75% 30.06 in 10.0 mi NW 13.8 mph 19.6 mph N/A   Overcast
4:35 PM 37.4 °F 29.8 °F 30.2 °F 75% 30.07 in 10.0 mi NNW 11.5 mph 20.7 mph N/A   Overcast
4:55 PM 37.4 °F 29.8 °F 30.2 °F 75% 30.08 in 10.0 mi NW 11.5 mph 17.3 mph N/A   Overcast
5:15 PM 37.4 °F 30.3 °F 28.4 °F 70% 30.08 in 10.0 mi NNW 10.4 mph 20.7 mph N/A   Overcast
5:35 PM 37.4 °F 29.8 °F 28.4 °F 70% 30.09 in 10.0 mi North 11.5 mph 19.6 mph N/A   Overcast
5:55 PM 35.6 °F 27.1 °F 28.4 °F 75% 30.10 in 10.0 mi NNW 12.7 mph 17.3 mph N/A   Overcast
6:15 PM 35.6 °F 27.5 °F 28.4 °F 75% 30.10 in 10.0 mi NNW 11.5 mph 19.6 mph N/A   Overcast
6:35 PM 35.6 °F 28.0 °F 26.6 °F 70% 30.10 in 10.0 mi NNW 10.4 mph 18.4 mph N/A   Overcast
6:55 PM 33.8 °F 24.8 °F 26.6 °F 75% 30.11 in 10.0 mi NNW 12.7 mph 17.3 mph N/A   Overcast
7:15 PM 33.8 °F 25.3 °F 26.6 °F 75% 30.11 in 10.0 mi NNW 11.5 mph - N/A   Overcast
7:35 PM 33.8 °F 24.8 °F 26.6 °F 75% 30.12 in 10.0 mi NNW 12.7 mph - N/A   Overcast
7:55 PM 33.8 °F 24.8 °F 26.6 °F 75% 30.13 in 10.0 mi North 12.7 mph 17.3 mph N/A   Overcast
8:15 PM 33.8 °F 25.3 °F 26.6 °F 75% 30.13 in 10.0 mi North 11.5 mph 16.1 mph N/A   Overcast
8:35 PM 33.8 °F 24.3 °F 26.6 °F 75% 30.13 in 10.0 mi North 13.8 mph 19.6 mph N/A   Overcast
8:55 PM 33.8 °F 25.3 °F 26.6 °F 75% 30.13 in 10.0 mi North 11.5 mph 19.6 mph N/A   Overcast
9:15 PM 33.8 °F 23.9 °F 26.6 °F 75% 30.14 in 10.0 mi North 15.0 mph - N/A   Overcast
9:35 PM 33.8 °F 27.0 °F 26.6 °F 75% 30.14 in 10.0 mi North 8.1 mph - N/A   Overcast
9:55 PM 33.8 °F 25.8 °F 26.6 °F 75% 30.14 in 10.0 mi North 10.4 mph 17.3 mph N/A   Overcast
10:15 PM 33.8 °F 26.4 °F 26.6 °F 75% 30.15 in 10.0 mi North 9.2 mph - N/A   Overcast
10:35 PM 33.8 °F 27.0 °F 26.6 °F 75% 30.14 in 10.0 mi North 8.1 mph - N/A   Overcast
10:55 PM 33.8 °F 26.4 °F 26.6 °F 75% 30.14 in 10.0 mi NNE 9.2 mph - N/A   Overcast
11:15 PM 33.8 °F 27.0 °F 26.6 °F 75% 30.15 in 10.0 mi North 8.1 mph - N/A   Overcast
11:35 PM 33.8 °F 27.7 °F 26.6 °F 75% 30.14 in 10.0 mi NNE 6.9 mph - N/A   Overcast
11:55 PM 33.8 °F 26.4 °F 26.6 °F 75% 30.14 in 10.0 mi North 9.2 mph - N/A   Overcast